sat.trackr.live / text

‹ back to catalog

QIANFAN-22

NORAD 61555 · 2024-185D

PAYLOAD ACTIVE UNKNOWN

§ Identity

Operator
Country
PRC
Launch date
2024-10-15
Launch site
TAISC
Launch vehicle
Mass (kg)
RCS (m²)

External: N2YO · Heavens-Above · Gunter

§ Orbital elements

Epoch: 2026-09-22T20:54:54.922464Z

Period
103.86 min
Inclination
88.9834°
Eccentricity
0.0006082
Mean motion
13.86430855 rev/d
Perigee alt
936.7 km
Apogee alt
945.6 km
Semi-major
7,319.3 km
B*
1.9034e-4
RAAN
48.1209°
Arg perigee
188.4032°
Mean anomaly
171.7038°
Rev number
10,830

§ Raw data

QIANFAN-221 61555U 24185D   26265.87146901  .00000234  00000+0  19034-3 0  99972 61555  88.9834  48.1209 0006082 188.4032 171.7038 13.86430855108302

JSON: /api/v1/satellites/61555 · /tle

For live sub-satellite position, see the globe view (requires WebGL).

§ Visibility from observer

Set your observer location to see the next 7 days of passes ≥ 10°. The values pass through the URL so the page stays shareable.

No JS? Fill the form by hand. The geolocation button needs JavaScript.